{"data":{"norad_id":58443,"intl_designator":"2023-183G","name":"STARLINK-30971","alt_names":[],"object_type":"PAYLOAD","status":"ACTIVE","operator":null,"country":"US","launch_date":"2023-11-28","launch_site_code":"AFETR","launch_vehicle":null,"mission":null,"orbit_class":"UNKNOWN","rcs_meters":null,"size_class":null,"mass_kg":null,"dimensions":null,"purposes":["comms"],"wikipedia_slug":null,"has_3d_model":false,"image_url":null,"decayed_at":null,"tle_current":{"epoch":"2026-05-24T19:45:29.143872Z","epoch_age_seconds":86356,"freshness":"FRESH","line1":"1 58443U 23183G   26144.82325398 -.00000692  00000+0 -15630-4 0  9995","line2":"2 58443  43.0010 332.0248 0001394 261.1642  98.9052 15.27580429138373","mean_motion":15.27580429,"eccentricity":0.0001394,"inclination_deg":43.001,"raan_deg":332.0248,"arg_perigee_deg":261.1642,"mean_anomaly_deg":98.9052,"bstar":-1.563e-5,"rev_number":13837,"period_min":94.266722240129,"perigee_km":482.0913622969,"apogee_km":484.00426062234,"semimajor_km":6861.1848114596,"source":"CELESTRAK","updated_at":"2026-05-25T13:38:18.622945Z"}}}